Location: Lane
(33.5226°N, 79.8788°W)
Time: 05:14:05
(UTC+00:00)

Vanguard 2 - Pass Details

Date: 05 October 2022
Orbit: 553 x 2933 km, 32.9° (Epoch: 26 November)

Event Time Altitude Azimuth Distance (km) Brightness Sun altitude
Rises 21:41:31 0° 282° (WNW) 5,635 13.1 14.9°
Reaches altitude 10° 21:44:47 10° 280° (W) 4,885 13.0 14.3°
Maximum altitude 21:59:57 73° 200° (SSW) 2,944 10.8 11.2°
Drops below altitude 10° 22:17:44 10° 120° (ESE) 5,607 11.5 7.6°
Sets 22:21:48 0° 118° (ESE) 6,470 11.8 6.7°
